Change the Weather History Date:

Saturday, March 2, 2013

  Actual Average Record
Temperature  
Mean Temperature 49 °F -  
Max Temperature 59 °F 59 °F 71 °F (2002)
Min Temperature 39 °F 43 °F 32 °F (2012)
Degree Days  
Heating Degree Days 16    
Moisture  
Dew Point 41 °F    
Average Humidity 71    
Maximum Humidity 87    
Minimum Humidity 55    
Precipitation  
Precipitation 0.00 in - - ()
Sea Level Pressure  
Sea Level Pressure 29.92 in    
Wind  
Wind Speed 3 mph ()    
Max Wind Speed 9 mph    
Max Gust Speed -    
Visibility 6.2 miles    
Events      
Averages and records for this station are not official NWS values.
T = Trace of Precipitation, MM = Missing Value Source: Averaged Metar Reports

Daily Weather History Graph

Daily Weather History Graph

Search for Another Location

Airport or City:

Trip Planner

Search our weather history database for the weather conditions in past years. The results will help you decide how hot, cold, wet, or windy it might be!

Date:

Astronomy

Mar. 02, 2013 Rise Set
Actual Time 6:56 AM EET 6:20 PM EET
Civil Twilight 6:29 AM EET 6:46 PM EET
Nautical Twilight 5:59 AM EET 7:17 PM EET
Astronomical Twilight 5:28 AM EET 7:47 PM EET
Moon 11:33 PM EET (3/2) 9:16 AM EET (3/2)
Length of Visible Light 12h 16m
Length of Day
11h 23m
Waning Gibbous, 77% of the Moon is Illuminated
Mar 2
Waning Gibbous
Mar 4
Last Quarter
Mar 11
New
Mar 19
First Quarter
Mar 27
Full

Hourly Weather History & Observations

Time (EET) Temp. Windchill Dew Point Humidity Pressure Visibility Wind Dir Wind Speed Gust Speed Precip Events Conditions
12:50 AM 41.0 °F 37.1 °F 35.6 °F 81% 30.01 in 6.2 mi North 5.8 mph - N/A   Partly Cloudy
1:50 AM 41.0 °F 36.4 °F 35.6 °F 81% 30.01 in 6.2 mi NNW 6.9 mph - N/A   Partly Cloudy
2:50 AM 41.0 °F 38.0 °F 35.6 °F 81% 29.98 in 6.2 mi NNW 4.6 mph - N/A   Partly Cloudy
3:50 AM 39.2 °F 35.9 °F 35.6 °F 87% 29.98 in 6.2 mi North 4.6 mph - N/A   Partly Cloudy
4:50 AM 39.2 °F 35.9 °F 35.6 °F 87% 29.98 in 6.2 mi North 4.6 mph - N/A   Partly Cloudy
5:20 AM 39.2 °F 35.9 °F 35.6 °F 87% 29.98 in 6.2 mi North 4.6 mph - N/A   Partly Cloudy
6:20 AM 39.2 °F 35.9 °F 35.6 °F 87% 29.95 in 6.2 mi North 4.6 mph - N/A   Partly Cloudy
6:50 AM 39.2 °F 35.9 °F 35.6 °F 87% 29.95 in - NNW 4.6 mph - N/A   Clear
7:20 AM 41.0 °F 38.0 °F 35.6 °F 81% 29.98 in - North 4.6 mph - N/A   Clear
7:50 AM 42.8 °F 39.3 °F 39.2 °F 87% 29.95 in - NNW 5.8 mph - N/A   Clear
8:20 AM 44.6 °F 42.2 °F 41.0 °F 87% 29.95 in - North 4.6 mph - N/A   Clear
8:50 AM 48.2 °F - 41.0 °F 76% 29.95 in - Calm Calm - N/A   Clear
9:20 AM 50.0 °F - 41.0 °F 71% 29.95 in - Calm Calm - N/A   Clear
9:50 AM 51.8 °F - 42.8 °F 71% 29.95 in - Calm Calm - N/A   Clear
10:20 AM 53.6 °F - 42.8 °F 67% 29.95 in - Calm Calm - N/A   Clear
10:50 AM 55.4 °F - 41.0 °F 58% 29.95 in - Calm Calm - N/A   Clear
11:20 AM 55.4 °F - 42.8 °F 63% 29.95 in - Calm Calm - N/A   Clear
11:50 AM 57.2 °F - 41.0 °F 55% 29.92 in 6.2 mi Calm Calm - N/A   Partly Cloudy
12:20 PM 57.2 °F - 41.0 °F 55% 29.92 in 6.2 mi Calm Calm - N/A   Partly Cloudy
12:50 PM 59.0 °F - 44.6 °F 59% 29.92 in 6.2 mi SSW 4.6 mph - N/A   Partly Cloudy
1:20 PM 57.2 °F - 42.8 °F 59% 29.89 in 6.2 mi South 8.1 mph - N/A   Partly Cloudy
1:50 PM 57.2 °F - 42.8 °F 59% 29.89 in 6.2 mi SSW 9.2 mph - N/A   Partly Cloudy
2:20 PM 57.2 °F - 42.8 °F 59% 29.89 in 6.2 mi SSW 8.1 mph - N/A   Partly Cloudy
2:50 PM 57.2 °F - 44.6 °F 63% 29.89 in 6.2 mi South 6.9 mph - N/A   Partly Cloudy
3:20 PM 57.2 °F - 44.6 °F 63% 29.89 in 6.2 mi South 5.8 mph - N/A   Scattered Clouds
3:50 PM 57.2 °F - 44.6 °F 63% 29.89 in 6.2 mi South 6.9 mph - N/A   Scattered Clouds
4:20 PM 55.4 °F - 42.8 °F 63% 29.89 in 6.2 mi SSW 6.9 mph - N/A   Scattered Clouds
4:50 PM 55.4 °F - 44.6 °F 67% 29.89 in 6.2 mi SSW 5.8 mph - N/A   Scattered Clouds
5:20 PM 55.4 °F - 42.8 °F 63% 29.89 in 6.2 mi Calm Calm - N/A   Scattered Clouds
5:50 PM 53.6 °F - 42.8 °F 67% 29.89 in 6.2 mi Calm Calm - N/A   Scattered Clouds
6:20 PM 53.6 °F - 42.8 °F 67% 29.89 in 6.2 mi Calm Calm - N/A   Scattered Clouds
6:50 PM 53.6 °F - 42.8 °F 67% 29.89 in 6.2 mi Calm Calm - N/A   Partly Cloudy
7:20 PM 53.6 °F - 42.8 °F 67% 29.89 in 6.2 mi Calm Calm - N/A   Partly Cloudy
7:50 PM 51.8 °F - 42.8 °F 71% 29.89 in 6.2 mi Calm Calm - N/A   Partly Cloudy
8:20 PM 51.8 °F - 44.6 °F 76% 29.89 in 6.2 mi Calm Calm - N/A   Partly Cloudy
8:50 PM 51.8 °F - 42.8 °F 71% 29.89 in 6.2 mi Calm Calm - N/A   Partly Cloudy
9:20 PM 50.0 °F - 42.8 °F 76% 29.89 in 6.2 mi North 3.5 mph - N/A   Partly Cloudy
9:50 PM 51.8 °F - 42.8 °F 71% 29.89 in 6.2 mi Calm Calm - N/A   Partly Cloudy
10:20 PM 51.8 °F - 42.8 °F 71% 29.89 in 6.2 mi Calm Calm - N/A   Scattered Clouds
10:50 PM 50.0 °F - 41.0 °F 71% 29.89 in 6.2 mi NW 3.5 mph - N/A   Mostly Cloudy
11:50 PM 50.0 °F - 39.2 °F 66% 29.89 in 6.2 mi Calm Calm - N/A   Scattered Clouds